Weather observations for the past three days for
Bottineau Municipal Airport
Imperial (Metric)
Date Time (cdt) Wind (mph) Vis. (mi.) Weather Sky Cond. Temperature (ºF) Relative Humidity Wind Chill (°F) Heat Index (°F) Pressure Precipitation (in)
Air Dwpt 6 hour altimeter (in) sea level (mb) 1 hr 3 hr 6 hr
Max. Min.
14 08:15 Calm 10.00 Fair CLR 64.4 60.8 88% 29.99 0.0
14 07:55 N 3 10.00 Fair CLR 60.8 60.8 100% 29.99 0.0
14 07:35 N 5 10.00 Fair CLR 59 59 100% 29.99 0.0
14 07:15 NE 3 10.00 Fair CLR 57.2 57.2 100% 29.98 0.0
14 06:55 N 5 10.00 Fair CLR 57.2 57.2 100% 29.98 0.0
14 06:35 Calm 10.00 Fair CLR 55.4 55.4 100% 29.98 0.0
14 06:15 Calm 10.00 Fair CLR 55.4 55.4 100% 29.98 0.0
14 05:55 SW 3 10.00 Fair CLR 55.4 55.4 100% 29.98 0.0
14 05:35 E 5 10.00 Fair CLR 55.4 55.4 100% 29.97 0.0
14 05:15 Calm 10.00 Fair CLR 57.2 55.4 94% 29.97 0.0
14 04:55 NE 6 10.00 Fair CLR 57.2 55.4 94% 29.97 0.0
14 04:35 E 8 10.00 Fair CLR 55.4 55.4 100% 29.97 0.0
14 04:15 NE 5 10.00 Fair CLR 57.2 57.2 100% 29.97 0.0
14 03:55 NE 8 10.00 Fair CLR 57.2 57.2 100% 29.97 0.0
14 03:35 N 3 10.00 Fair CLR 60.8 55.4 83% 29.97 0.0
14 03:15 Calm 10.00 Fair CLR 60.8 55.4 83% 29.97 0.0
14 02:55 Calm 10.00 Fair CLR 66.2 53.6 64% 29.97 0.0
14 02:35 Calm 10.00 Fair CLR 64.4 55.4 73% 29.97 0.0
14 02:15 Calm 10.00 Fair CLR 64.4 55.4 73% 29.96 0.0
14 01:55 NW 6 10.00 Fair CLR 66.2 55.4 68% 29.95 0.0
14 01:35 N 7 10.00 Fair CLR 64.4 57.2 78% 29.95 0.0
14 01:15 N 8 10.00 Fair CLR 62.6 57.2 83% 29.96 0.0
14 00:55 N 8 10.00 Fair CLR 64.4 57.2 78% 29.96 0.0
14 00:35 N 7 10.00 Fair CLR 62.6 57.2 83% 29.96 0.0
14 00:15 N 9 10.00 Fair CLR 64.4 57.2 78% 29.96 0.0
13 23:55 N 7 10.00 Fair CLR 64.4 57.2 78% 29.96 0.0
13 23:35 N 9 10.00 Fair CLR 64.4 57.2 78% 29.96 0.0
13 23:15 N 9 10.00 Fair CLR 64.4 57.2 78% 29.97 0.0
13 22:55 N 8 10.00 Fair CLR 64.4 59 83% 29.98 0.0
13 22:35 N 6 10.00 Fair CLR 64.4 59 83% 29.98 0.0
13 22:15 N 6 9.00 Fair CLR 68 59 73% 29.98 0.0
13 21:55 N 5 9.00 Fair CLR 68 59 73% 29.98 0.0
13 21:35 N 6 10.00 Fair CLR 69.8 59 69% 29.97 0.0
13 21:15 N 5 10.00 Fair CLR 69.8 59 69% 29.96 0.0
13 20:55 N 6 G 12 10.00 Fair CLR 71.6 59 65% 29.97 0.0
13 20:35 N 8 G 15 10.00 Fair CLR 73.4 60.8 65% 29.97 0.0
13 20:15 N 8 10.00 Fair CLR 75.2 59 57% 78 29.97 0.0
13 19:55 NW 8 G 15 10.00 Fair CLR 75.2 59 57% 78 29.97 0.0
13 19:35 NW 10 G 17 10.00 Fair CLR 77 57.2 51% 79 29.98 0.0
13 19:15 NW 12 10.00 Fair CLR 77 59 54% 79 29.98 0.0
13 18:55 NW 12 10.00 Fair CLR 77 59 54% 79 29.98 0.0
13 18:35 NW 15 10.00 Fair CLR 78.8 59 51% 80 29.97 0.0
13 18:15 NW 13 9.00 Fair CLR 78.8 59 51% 80 29.97 0.0
13 17:55 NW 14 10.00 Fair CLR 78.8 59 51% 80 29.97 0.0
13 17:35 NW 14 G 20 9.00 Fair CLR 78.8 60.8 54% 80 29.97 0.0
13 17:15 NW 10 G 17 10.00 Fair CLR 78.8 60.8 54% 80 29.97 0.0
13 16:55 NW 15 9.00 Fair CLR 78.8 62.6 58% 80 29.97 0.0
13 16:35 NW 12 G 18 9.00 Fair CLR 78.8 62.6 58% 80 29.96 0.0
13 16:15 NW 15 9.00 Fair CLR 78.8 62.6 58% 80 29.97 0.0
13 15:55 NW 13 G 20 10.00 Fair CLR 78.8 60.8 54% 80 29.97 0.0
13 15:35 NW 13 9.00 Fair CLR 78.8 62.6 58% 80 29.96 0.0
13 15:15 NW 12 9.00 Fair CLR 78.8 64.4 61% 81 29.96 0.0
13 14:55 NW 14 10.00 A Few Clouds FEW035 FEW100 80.6 64.4 58% 82 29.96 0.0
13 14:35 NW 12 10.00 Mostly Cloudy SCT034 SCT044 BKN100 78.8 68 70% 81 29.95 0.0
13 14:15 N 10 10.00 Partly Cloudy SCT034 SCT044 80.6 69.8 70% 84 29.95 0.0
13 13:55 N 9 10.00 Mostly Cloudy BKN033 78.8 69.8 74% 81 29.96 0.0
13 13:35 N 10 G 17 10.00 Partly Cloudy SCT033 78.8 68 70% 81 29.95 0.0
13 13:15 N 12 10.00 Partly Cloudy SCT029 SCT033 78.8 69.8 74% 81 29.95 0.0
13 12:55 N 13 10.00 Partly Cloudy SCT027 SCT032 SCT075 78.8 69.8 74% 81 29.95 0.0
13 12:35 N 8 G 17 10.00 Fair CLR 78.8 69.8 74% 81 29.95 0.0
13 12:15 N 9 G 15 10.00 A Few Clouds FEW028 78.8 71.6 79% 82 29.95 0.0
13 11:55 NW 9 10.00 Fair CLR 78.8 69.8 74% 81 29.94 0.0
13 11:35 N 9 10.00 Fair CLR 78.8 69.8 74% 81 29.94 0.0
13 11:15 N 5 10.00 Partly Cloudy SCT065 77 69.8 79% 79 29.93 0.0
13 10:55 N 6 10.00 A Few Clouds FEW065 77 69.8 79% 79 29.93 0.0
13 10:35 N 6 10.00 Fair CLR 77 69.8 79% 79 29.92 0.0
13 10:15 NW 10 10.00 Fair CLR 75.2 68 78% 76 29.92 0.0
13 09:55 NW 9 10.00 Fair CLR 75.2 66.2 74% 77 29.92 0.0
13 09:35 NW 9 10.00 Fair CLR 75.2 66.2 74% 77 29.92 0.0
13 09:15 NW 7 10.00 A Few Clouds FEW080 73.4 66.2 78% 29.92 0.0
13 08:55 NW 6 10.00 A Few Clouds FEW080 71.6 66.2 83% 29.92 0.0
13 08:35 W 6 10.00 Fair CLR 71.6 64.4 78% 29.92 0.0
13 08:15 Calm 10.00 Thunderstorm in Vicinity CLR 71.6 66.2 83% 29.91 0.0
13 07:55 Calm 10.00 Thunderstorm in Vicinity CLR 71.6 64.4 78% 29.91 0.0
13 07:35 Calm 10.00 Thunderstorm in Vicinity CLR 68 64.4 88% 29.91 0.0
13 07:15 NW 5 10.00 Fair CLR 64.4 62.6 94% 29.91 0.0
13 06:55 N 6 10.00 Thunderstorm in Vicinity CLR 64.4 62.6 94% 29.91 0.0
13 06:35 N 9 10.00 Fair CLR 64.4 62.6 94% 29.9 0.0
13 06:15 N 8 10.00 Fair CLR 62.6 62.6 100% 29.89 0.0
13 05:55 N 5 10.00 Fair CLR 64.4 62.6 94% 29.89 0.0
13 05:35 N 8 10.00 Partly Cloudy FEW040 FEW048 SCT060 66.2 62.6 88% 29.89 0.0
13 05:15 NE 5 10.00 Overcast SCT042 BKN060 OVC120 66.2 62.6 88% 29.89 0.0
13 04:55 S 12 G 20 10.00 Thunderstorm in Vicinity Rain FEW027 FEW044 BKN065 66.2 62.6 88% 29.89 0.0 0.07
13 04:35 E 7 4.00 Light Rain Fog/Mist FEW003 SCT070 BKN120 66.2 62.6 88% 29.91 0.0
13 04:15 W 15 6.00 Light Rain Haze FEW060 SCT070 BKN120 68 62.6 83% 29.94 0.0
13 03:55 W 17 G 23 6.00 Thunderstorm in Vicinity Rain Haze FEW045 SCT060 BKN070 69.8 60.8 73% 29.92 0.0
13 03:35 W 20 G 28 10.00 Thunderstorm in Vicinity FEW033 SCT044 BKN060 69.8 60.8 73% 29.93 0.0
13 03:15 W 14 G 31 9.00 Thunderstorm in Vicinity Rain FEW028 SCT042 BKN055 69.8 64.4 83% 29.96 0.0
13 02:55 W 21 G 31 10.00 Partly Cloudy and Breezy FEW060 SCT070 SCT120 71.6 62.6 73% 29.96 0.0
13 02:35 N 6 10.00 Fair CLR 68 62.6 83% 29.87 0.0
13 02:30 NE 6 10.00 Fair CLR 68 62.6 83% 29.86 0.0
13 02:15 Calm 10.00 Fair CLR 68 62.6 83% 29.86 0.0
13 01:55 N 5 6.00 Fog/Mist CLR 66.2 62.6 88% 29.87 0.0
13 01:35 NE 5 10.00 Fair CLR 68 60.8 78% 29.87 0.0
13 01:15 E 5 10.00 Fair CLR 71.6 60.8 69% 29.88 0.0
13 00:55 S 6 10.00 A Few Clouds FEW120 75.2 60.8 61% 77 29.89 0.0
13 00:35 E 10 10.00 Fair CLR 73.4 60.8 65% 29.88 0.0
13 00:15 E 7 10.00 Partly Cloudy FEW043 FEW065 SCT075 73.4 62.6 69% 29.87 0.0
12 23:55 E 7 3.00 A Few Clouds with Haze FEW120 71.6 66.2 83% 29.88 0.0
12 23:50 Calm 5.00 Fog/Mist FEW120 69.8 66.2 88% 29.89 0.0
12 23:35 Calm 10.00 A Few Clouds FEW085 FEW120 71.6 66.2 83% 29.9 0.0
12 23:15 Calm 10.00 A Few Clouds FEW120 71.6 64.4 78% 29.9 0.0
12 22:55 Calm 10.00 Fair CLR 73.4 64.4 74% 29.9 0.0
12 22:35 SE 8 10.00 Fair CLR 73.4 66.2 78% 29.88 0.0
12 22:15 S 14 G 24 10.00 Fair CLR 78.8 73.4 84% 82 29.87 0.0
12 21:55 E 13 10.00 Fair CLR 80.6 75.2 84% 86 29.85 0.0
12 21:35 E 10 9.00 Thunderstorm in Vicinity CLR 78.8 73.4 84% 82 29.86 0.0
12 21:15 E 5 10.00 Thunderstorm in Vicinity FEW042 FEW047 SCT065 78.8 69.8 74% 81 29.85 0.0
12 20:55 SE 3 10.00 Thunderstorm BKN044 BKN050 80.6 71.6 74% 85 29.88 0.0
12 20:35 E 9 10.00 Partly Cloudy SCT049 SCT060 82.4 77 84% 91 29.85 0.0
12 20:15 E 7 10.00 Thunderstorm in Vicinity BKN050 BKN060 82.4 77 84% 91 29.87 0.0
12 19:55 E 7 10.00 Thunderstorm in Vicinity BKN050 82.4 77 84% 91 29.86 0.0
12 19:35 E 6 10.00 Thunderstorm in Vicinity SCT048 84.2 78.8 84% 96 29.84 0.0
12 19:15 SE 6 10.00 Fair CLR 84.2 77 79% 94 29.87 0.0
12 18:55 SE 5 10.00 Fair CLR 84.2 77 79% 94 29.87 0.0
12 18:35 SE 8 10.00 Fair CLR 86 75.2 70% 95 29.87 0.0
12 18:15 SE 8 10.00 Fair CLR 86 73.4 66% 93 29.87 0.0
12 17:55 SE 8 10.00 Thunderstorm in Vicinity CLR 86 75.2 70% 95 29.86 0.0
12 17:35 SE 7 10.00 Fair CLR 87.8 75.2 66% 98 29.86 0.0
12 17:15 SE 8 10.00 Fair CLR 86 75.2 70% 95 29.86 0.0
12 16:55 S 10 10.00 Fair CLR 87.8 75.2 66% 98 29.85 0.0
12 16:35 SE 12 10.00 Fair CLR 86 73.4 66% 93 29.86 0.0
12 16:15 SE 12 G 18 10.00 Fair CLR 87.8 73.4 62% 96 29.86 0.0
12 15:55 SE 14 10.00 Fair CLR 86 73.4 66% 93 29.86 0.0
12 15:35 SE 12 G 21 10.00 Fair CLR 86 73.4 66% 93 29.86 0.0
12 15:15 SE 10 G 18 10.00 Fair CLR 86 73.4 66% 93 29.86 0.0
12 14:55 SE 10 G 16 10.00 Fair CLR 86 71.6 62% 92 29.86 0.0
12 14:35 SE 10 10.00 Fair CLR 86 71.6 62% 92 29.87 0.0
12 14:15 SE 10 10.00 Fair CLR 86 73.4 66% 93 29.88 0.0
12 13:55 SE 12 10.00 Fair CLR 84.2 71.6 66% 90 29.87 0.0
12 13:35 SE 10 G 16 10.00 Fair CLR 86 71.6 62% 92 29.88 0.0
12 13:15 SE 8 10.00 Fair CLR 84.2 73.4 70% 91 29.88 0.0
12 12:55 E 7 10.00 Fair CLR 84.2 73.4 70% 91 29.88 0.0
12 12:35 Vrbl 5 10.00 Fair CLR 82.4 73.4 74% 88 29.89 0.0
12 12:15 Calm 9.00 Fair CLR 80.6 71.6 74% 85 29.89 0.0
12 11:55 Calm 9.00 Fair CLR 78.8 71.6 79% 82 29.89 0.0
12 11:35 SE 8 10.00 Fair CLR 78.8 69.8 74% 81 29.87 0.0
12 11:15 SE 12 10.00 Fair CLR 77 69.8 79% 79 29.86 0.0
12 10:55 SE 10 9.00 Fair CLR 77 69.8 79% 79 29.86 0.0
12 10:35 SE 13 10.00 Fair CLR 75.2 68 78% 76 29.86 0.0
12 10:15 SE 10 10.00 Fair CLR 75.2 69.8 83% 75 29.86 0.0
12 09:55 E 12 10.00 Fair CLR 75.2 68 78% 76 29.87 0.0
12 09:35 E 12 10.00 Fair CLR 73.4 68 83% 29.88 0.0
12 08:55 E 10 10.00 Fair CLR 71.6 68 88% 29.87 0.0
12 08:35 E 7 10.00 Fair CLR 71.6 68 88% 29.87 0.0
12 08:15 E 9 10.00 Fair CLR 69.8 68 94% 29.86 0.0
12 07:55 E 8 10.00 Fair CLR 69.8 66.2 88% 29.86 0.0
12 07:35 E 8 8.00 Fair CLR 68 66.2 94% 29.87 0.0
12 07:15 E 9 10.00 Fair CLR 68 66.2 94% 29.86 0.0
12 06:55 E 8 10.00 Fair CLR 68 66.2 94% 29.87 0.0
12 06:35 E 8 10.00 Fair CLR 68 66.2 94% 29.87 0.0
12 06:15 E 9 9.00 Fair CLR 66.2 66.2 100% 29.86 0.0
12 05:55 E 8 10.00 Fair CLR 66.2 66.2 100% 29.86 0.0
12 05:35 E 9 9.00 Fair CLR 66.2 66.2 100% 29.85 0.0
12 05:15 E 9 10.00 Fair CLR 68 66.2 94% 29.86 0.0
12 04:55 E 7 10.00 Fair CLR 66.2 66.2 100% 29.86 0.0
12 04:35 E 7 10.00 Fair CLR 68 66.2 94% 29.86 0.0
12 04:15 E 8 10.00 Fair CLR 68 66.2 94% 29.86 0.0
12 03:55 E 8 10.00 Fair CLR 68 66.2 94% 29.86 0.0
12 03:35 E 9 10.00 Fair CLR 68 66.2 94% 29.86 0.0
12 03:15 E 7 10.00 Fair CLR 68 66.2 94% 29.87 0.0
12 02:55 E 9 10.00 Fair CLR 69.8 66.2 88% 29.87 0.0
12 02:35 E 8 10.00 Fair CLR 69.8 66.2 88% 29.87 0.0
12 02:15 E 7 10.00 Fair CLR 69.8 66.2 88% 29.88 0.0
12 01:55 E 7 10.00 Fair CLR 69.8 68 94% 29.88 0.0
12 01:35 E 8 10.00 Fair CLR 69.8 66.2 88% 29.88 0.0
12 01:15 E 9 10.00 Fair CLR 69.8 66.2 88% 29.88 0.0
12 00:55 E 9 10.00 Fair CLR 69.8 66.2 88% 29.88 0.0
12 00:35 E 9 10.00 Fair CLR 69.8 66.2 88% 29.88 0.0
12 00:30 E 8 10.00 Fair CLR 69.8 66.2 88% 29.88 0.0
12 00:15 E 8 10.00 Fair CLR 69.8 66.2 88% 29.88 0.0
11 23:55 E 8 10.00 Fair CLR 69.8 66.2 88% 29.88 0.0
11 23:35 E 8 10.00 Fair CLR 71.6 66.2 83% 29.89 0.0
11 23:15 E 8 10.00 Fair CLR 71.6 66.2 83% 29.89 0.0
11 22:55 E 9 10.00 Fair CLR 73.4 68 83% 29.88 0.0
11 22:35 E 9 10.00 Fair CLR 73.4 68 83% 29.88 0.0
11 22:15 E 8 10.00 Fair CLR 75.2 68 78% 76 29.88 0.0
11 21:55 E 9 10.00 Fair CLR 75.2 68 78% 76 29.88 0.0
11 21:35 E 8 10.00 Fair CLR 75.2 69.8 83% 75 29.88 0.0
11 21:15 E 7 10.00 Fair CLR 75.2 69.8 83% 75 29.88 0.0
11 20:55 E 8 10.00 Fair CLR 75.2 69.8 83% 75 29.89 0.0
11 20:35 SE 7 10.00 Fair CLR 75.2 69.8 83% 75 29.89 0.0
11 20:15 SE 7 10.00 Fair CLR 78.8 69.8 74% 81 29.89 0.0
11 19:55 SE 6 10.00 Fair CLR 80.6 69.8 70% 84 29.9 0.0
11 19:35 SE 6 G 15 9.00 Fair CLR 80.6 69.8 70% 84 29.89 0.0
11 19:15 SE 12 10.00 Fair CLR 80.6 69.8 70% 84 29.88 0.0
11 18:55 SE 6 10.00 Fair CLR 80.6 69.8 70% 84 29.89 0.0
11 18:35 S 7 G 13 10.00 Fair CLR 82.4 69.8 66% 86 29.89 0.0
11 18:15 SE 10 10.00 Fair CLR 84.2 68 58% 87 29.89 0.0
11 17:55 SE 12 G 17 10.00 Fair CLR 84.2 68 58% 87 29.88 0.0
11 17:35 S 16 10.00 Fair CLR 86 68 55% 89 29.88 0.0
11 17:15 SE 14 10.00 Fair CLR 86 66.2 52% 88 29.89 0.0
11 16:55 SE 15 10.00 Fair CLR 86 66.2 52% 88 29.89 0.0
11 16:35 S 15 10.00 Fair CLR 87.8 62.6 43% 88 29.89 0.0
11 16:15 SE 14 G 20 10.00 Fair CLR 87.8 64.4 46% 89 29.89 0.0
11 15:55 S 15 10.00 Fair CLR 86 62.6 46% 87 29.9 0.0
11 15:35 S 13 G 20 10.00 Fair CLR 86 62.6 46% 87 29.9 0.0
11 15:15 S 14 10.00 Fair CLR 87.8 66.2 49% 90 29.9 0.0
11 14:55 S 14 10.00 Fair CLR 87.8 64.4 46% 89 29.9 0.0
11 14:35 S 14 10.00 Fair CLR 87.8 64.4 46% 89 29.91 0.0
11 14:15 S 15 10.00 Fair CLR 87.8 64.4 46% 89 29.91 0.0
11 13:55 S 13 10.00 Fair CLR 86 66.2 52% 88 29.92 0.0
11 13:35 S 14 10.00 Fair CLR 86 66.2 52% 88 29.92 0.0
11 13:15 S 12 10.00 Fair CLR 84.2 66.2 55% 87 29.93 0.0
11 12:55 S 10 10.00 Fair CLR 84.2 66.2 55% 87 29.93 0.0
11 12:35 S 10 10.00 Fair CLR 82.4 66.2 58% 85 29.93 0.0
11 12:15 S 8 G 14 10.00 Fair CLR 82.4 68 62% 85 29.94 0.0
11 11:55 S 10 10.00 Fair CLR 80.6 68 66% 83 29.94 0.0
11 11:35 SE 9 10.00 Fair CLR 78.8 68 70% 81 29.94 0.0
11 11:15 SE 12 10.00 Fair CLR 78.8 66.2 65% 81 29.94 0.0
11 10:55 SE 10 10.00 Fair CLR 77 66.2 69% 79 29.94 0.0
11 10:35 SE 10 10.00 Fair CLR 75.2 66.2 74% 77 29.94 0.0
11 10:15 SE 9 10.00 Fair CLR 75.2 66.2 74% 77 29.94 0.0
11 09:55 S 9 10.00 Fair CLR 73.4 64.4 74% 29.95 0.0
11 09:35 SE 8 10.00 Fair CLR 73.4 64.4 74% 29.95 0.0
11 09:15 SE 9 10.00 Fair CLR 71.6 66.2 83% 29.95 0.0
11 08:55 SE 9 10.00 Fair CLR 69.8 66.2 88% 29.95 0.0
11 08:35 SE 8 10.00 Fair CLR 69.8 64.4 83% 29.95 0.0
Date Time (cdt) Wind (mph) Vis. (mi.) Weather Sky Cond. Air Dwpt Max. Min. Relative Humidity Wind Chill (°F) Heat Index (°F) altimeter (in) sea level (mb) 1 hr 3 hr 6 hr
6 hour
Temperature (ºF) Pressure Precipitation (in)